CW4740 Weather Reports


Display with metric or nautical units.
time (UTC)temp
F
wind
direction
speed
MPH
gust
MPH
rain 1hr
in
rain 24hr
in
rain mn
in
humidity
%
barometer
mb
20260902095200 78 119 0.0 0.0 0.00 0.74 0.50 97 1014.8
20260902094716 78 119 0.0 0.0 0.00 0.74 0.50 97 1014.6
20260902094634 78 119 0.0 0.0 0.00 0.74 0.50 97 1014.6
20260902094212 78 120 0.0 0.0 0.00 0.74 0.50 97 1014.5
20260902093629 78 119 0.0 0.0 0.00 0.74 0.50 97 1014.5
20260902093207 78 120 0.0 0.0 0.00 0.74 0.50 97 1014.4
20260902092642 78 119 0.0 0.0 0.00 0.74 0.50 97 1014.3
20260902092138 78 120 0.0 0.0 0.00 0.74 0.50 97 1014.3
20260902091655 78 119 0.0 0.0 0.00 0.74 0.50 97 1014.4
20260902091130 78 119 0.0 0.0 0.00 0.74 0.50 97 1014.4
20260902090707 78 120 0.0 0.0 0.00 0.74 0.50 97 1014.3
20260902090242 78 119 0.0 0.0 0.00 0.74 0.50 97 1014.4
20260902085647 78 119 0.0 0.0 0.00 0.74 0.50 97 1014.5
20260902085204 78 119 0.0 0.0 0.00 0.74 0.50 97 1014.4
20260902084740 78 119 0.0 0.0 0.00 0.74 0.50 97 1014.4
20260902084213 78 119 0.0 0.0 0.00 0.74 0.50 97 1014.4
20260902083744 78 119 0.0 0.0 0.00 0.74 0.50 97 1014.4
20260902083702 78 119 0.0 0.0 0.00 0.74 0.50 97 1014.4
20260902083136 78 119 0.0 0.0 0.00 0.74 0.50 97 1014.5
20260902082638 78 120 0.0 0.0 0.00 0.74 0.50 97 1014.6
20260902082232 78 119 0.0 0.0 0.00 0.74 0.50 97 1014.5
20260902081707 78 119 0.0 0.0 0.00 0.74 0.50 97 1014.5
20260902081146 78 119 0.0 0.0 0.00 0.74 0.50 96 1014.5
20260902080642 78 119 0.0 0.0 0.00 0.74 0.50 97 1014.5
20260902080221 78 120 0.0 0.0 0.00 0.74 0.50 96 1014.5
20260902075643 79 120 0.0 0.0 0.00 0.74 0.50 96 1014.5
20260902075238 79 119 0.0 0.0 0.00 0.74 0.50 96 1014.5
20260902074631 79 119 0.0 0.0 0.00 0.74 0.50 96 1014.4
20260902074248 79 119 0.0 0.0 0.00 0.74 0.50 96 1014.5
20260902074144 79 119 0.0 0.0 0.00 0.74 0.50 96 1014.5
20260902073641 79 119 0.0 0.0 0.00 0.74 0.50 97 1014.5
20260902073158 79 119 0.0 0.0 0.01 0.74 0.50 96 1014.5
20260902072716 79 120 0.0 0.0 0.01 0.74 0.50 96 1014.5
20260902072634 79 120 0.0 0.0 0.01 0.74 0.50 96 1014.5
20260902072132 79 119 0.0 0.0 0.02 0.74 0.50 96 1014.5
20260902071650 78 119 0.0 0.0 0.02 0.74 0.50 96 1014.6
20260902071206 78 119 0.0 0.0 0.03 0.74 0.50 96 1014.5
20260902070744 78 120 0.0 0.0 0.05 0.74 0.50 96 1014.5
20260902070641 78 120 0.0 0.0 0.05 0.74 0.50 96 1014.5
20260902070200 78 120 0.0 0.0 0.07 0.74 0.50 96 1014.5
20260902065629 78 120 0.0 0.0 0.08 0.74 0.50 96 1014.7
20260902065228 78 120 0.0 0.0 0.10 0.74 0.50 96 1014.7
20260902064645 78 119 0.0 0.0 0.14 0.74 0.50 96 1014.7
20260902064243 78 119 0.0 0.0 0.20 0.74 0.50 95 1014.7
20260902063658 78 119 0.0 0.0 0.29 0.74 0.50 95 1014.8
20260902063135 78 119 0.0 0.0 0.36 0.73 0.49 95 1015.0
20260902062633 78 119 0.0 0.0 0.46 0.73 0.49 95 1015.0
20260902062212 78 119 0.0 0.0 0.48 0.72 0.48 95 1015.1
20260902061728 78 119 0.0 0.0 0.48 0.72 0.48 95 1015.0
20260902061203 78 119 0.0 0.0 0.47 0.71 0.47 95 1015.1
20260902060658 78 120 0.0 3.0 0.45 0.69 0.45 94 1015.1
20260902060215 78 119 1.0 6.0 0.43 0.67 0.43 94 1015.2
20260902055657 78 120 1.0 6.0 0.42 0.66 0.42 94 1015.2
20260902055154 79 93 3.0 7.0 0.40 0.64 0.40 93 1015.3
20260902054710 79 93 3.0 7.0 0.36 0.60 0.36 93 1015.3
20260902054145 79 93 1.0 4.0 0.30 0.54 0.30 93 1015.3
20260902053743 79 93 2.0 8.0 0.20 0.44 0.20 92 1015.3
20260902053700 79 93 2.0 8.0 0.20 0.44 0.20 92 1015.3
20260902053156 79 93 0.0 8.0 0.12 0.36 0.12 91 1015.3
20260902052634 80 118 4.0 7.0 0.02 0.26 0.02 91 1015.4
20260902052133 80 136 2.0 5.0 0.00 0.24 0.00 91 1015.4
20260902051631 81 136 3.0 5.0 0.00 0.24 0.00 91 1015.4
20260902051150 81 215 1.0 4.0 0.00 0.24 0.00 91 1015.4
20260902050727 81 207 3.0 5.0 0.00 0.24 0.00 91 1015.4
20260902050243 81 96 1.0 4.0 0.00 0.24 0.00 92 1015.3
20260902050140 81 96 1.0 4.0 0.00 0.24 0.00 92 1015.3
20260902045710 81 96 1.0 6.0 0.00 0.24 0.00 92 1015.4
20260902045225 81 96 2.0 3.0 0.00 0.24 0.00 92 1015.5
20260902045143 81 96 2.0 3.0 0.00 0.24 0.00 92 1015.5
20260902044719 81 96 0.0 0.0 0.00 0.24 0.00 92 1015.4
20260902044637 81 96 0.0 0.0 0.00 0.24 0.00 92 1015.4
20260902044213 81 96 0.0 0.0 0.00 0.24 0.00 92 1015.3
20260902043648 81 96 0.0 0.0 0.00 0.24 0.00 92 1015.5
20260902043205 81 96 0.0 0.0 0.00 0.24 0.00 91 1015.4
20260902042722 81 96 0.0 0.0 0.00 0.24 0.00 91 1015.4
20260902042138 81 96 0.0 0.0 0.00 0.24 0.00 91 1015.3
20260902041751 81 96 0.0 0.0 0.00 0.24 0.00 91 1015.5
20260902041129 81 96 0.0 0.0 0.00 0.24 0.00 91 1015.5
20260902040723 81 96 0.0 0.0 0.00 0.24 0.00 90 1015.4
20260902040155 81 96 0.0 0.0 0.00 0.34 0.24 90 1015.6
20260902035642 81 96 0.0 0.0 0.00 0.34 0.24 90 1015.7
20260902035220 81 96 0.0 0.0 0.00 0.34 0.24 90 1015.7
20260902034735 81 96 0.0 0.0 0.00 0.34 0.24 90 1015.7
20260902034652 81 96 0.0 0.0 0.00 0.34 0.24 90 1015.7
20260902034130 81 96 0.0 0.0 0.00 0.34 0.24 90 1015.6
20260902033648 81 96 0.0 0.0 0.00 0.34 0.24 90 1015.6
20260902033144 82 96 0.0 0.0 0.00 0.34 0.24 90 1015.9
20260902032639 82 96 0.0 0.0 0.00 0.34 0.24 90 1015.9
20260902032213 82 96 0.0 0.0 0.00 0.34 0.24 90 1015.8
20260902032131 82 96 0.0 0.0 0.00 0.34 0.24 90 1015.8
20260902031647 82 96 0.0 0.0 0.00 0.34 0.24 90 1015.8
20260902031142 81 96 0.0 0.0 0.00 0.34 0.24 90 1016.0
20260902030640 81 96 0.0 0.0 0.00 0.34 0.24 90 1016.1
20260902030217 81 96 0.0 0.0 0.00 1.02 0.24 90 1016.1
20260902025704 82 96 0.0 0.0 0.00 1.02 0.24 90 1016.1
20260902025241 81 96 0.0 0.0 0.00 1.02 0.24 90 1016.1
20260902024636 81 96 0.0 0.0 0.00 1.02 0.24 90 1016.0
20260902024213 82 96 0.0 0.0 0.00 1.02 0.24 89 1016.1
20260902023629 82 96 0.0 0.0 0.00 1.02 0.24 89 1016.2
20260902023247 82 96 0.0 0.0 0.00 1.02 0.24 89 1016.2
20260902022639 82 96 0.0 0.0 0.00 1.02 0.24 89 1016.1
20260902022217 82 96 0.0 0.0 0.00 1.02 0.24 89 1016.0
20260902021712 82 96 0.0 0.0 0.00 1.02 0.24 89 1015.9
20260902021630 82 96 0.0 0.0 0.00 1.02 0.24 89 1015.9
20260902021222 82 96 0.0 0.0 0.00 1.02 0.24 89 1016.0
20260902020715 82 96 0.0 0.0 0.00 1.02 0.24 88 1016.1
20260902020633 82 96 0.0 0.0 0.00 1.02 0.24 88 1016.1
20260902020211 82 96 0.0 0.0 0.00 1.06 0.24 88 1016.1
20260902015738 82 96 0.0 0.0 0.00 1.06 0.24 88 1016.1
20260902015213 82 96 0.0 0.0 0.00 1.06 0.24 88 1016.0
20260902014709 82 96 0.0 0.0 0.00 1.06 0.24 88 1016.1
20260902014146 82 96 0.0 0.0 0.00 1.06 0.24 88 1016.0
20260902013704 82 96 0.0 0.0 0.00 1.06 0.24 88 1015.8
20260902013159 82 96 0.0 0.0 0.00 1.06 0.24 88 1015.8
20260902012656 82 96 0.0 0.0 0.00 1.06 0.24 87 1015.8
20260902012152 82 96 0.0 0.0 0.00 1.06 0.24 87 1015.8
20260902011647 82 96 0.0 0.0 0.00 1.06 0.24 87 1015.7
20260902011204 82 96 0.0 0.0 0.00 1.06 0.24 87 1015.6
20260902010641 82 96 0.0 0.0 0.00 1.06 0.24 86 1015.4
20260902010138 83 96 0.0 0.0 0.00 1.06 0.24 86 1015.3
20260902005707 83 96 0.0 0.0 0.00 1.06 0.24 86 1015.4
20260902005203 83 96 0.0 0.0 0.00 1.06 0.24 86 1015.3
20260902004701 83 96 0.0 0.0 0.00 1.06 0.24 86 1015.2
20260902004138 83 96 0.0 0.0 0.00 1.06 0.24 85 1015.2
20260902003635 83 96 0.0 0.0 0.00 1.06 0.24 85 1015.2
20260902003213 83 96 0.0 0.0 0.00 1.06 0.24 85 1015.1
20260902003131 83 96 0.0 0.0 0.00 1.06 0.24 85 1015.1
20260902002629 83 96 0.0 0.0 0.00 1.06 0.24 85 1015.2
20260902002147 83 96 0.0 0.0 0.00 1.06 0.24 84 1015.1
20260902001726 83 96 0.0 0.0 0.00 1.06 0.24 84 1015.2
20260902001158 83 96 0.0 0.0 0.00 1.06 0.24 84 1015.3
20260902000715 84 96 0.0 0.0 0.00 1.06 0.24 84 1015.4
20260902000150 84 96 0.0 0.0 0.00 1.06 0.24 83 1015.5
20260901235634 84 96 0.0 0.0 0.00 1.06 0.24 84 1015.6
20260901235151 84 96 0.0 0.0 0.00 1.06 0.24 83 1015.7
20260901234648 84 96 0.0 0.0 0.00 1.06 0.24 83 1015.8
20260901234205 84 96 0.0 0.0 0.00 1.06 0.24 83 1015.7
20260901233641 84 96 0.0 3.0 0.00 1.06 0.24 83 1015.8
20260901233159 84 96 0.0 3.0 0.00 1.06 0.24 83 1015.7
20260901232635 85 96 1.0 3.0 0.00 1.06 0.24 82 1015.5
20260901232132 85 96 0.0 4.0 0.00 1.06 0.24 83 1015.3
20260901231708 85 96 1.0 4.0 0.00 1.06 0.24 83 1015.3
20260901231223 85 49 2.0 5.0 0.00 1.06 0.24 82 1015.2
20260901231141 85 49 2.0 5.0 0.00 1.06 0.24 82 1015.2
20260901230657 85 45 1.0 5.0 0.00 1.06 0.24 82 1015.2
20260901230215 85 12 2.0 5.0 0.00 1.06 0.24 82 1015.2
20260901225737 85 51 1.0 5.0 0.00 1.06 0.24 82 1015.2
20260901225136 85 12 0.0 5.0 0.00 1.06 0.24 82 1015.2
20260901224634 85 13 3.0 6.0 0.00 1.06 0.24 81 1015.0
20260901224248 86 15 3.0 6.0 0.00 1.06 0.24 81 1015.1
20260901223722 86 355 3.0 6.0 0.00 1.06 0.24 81 1015.1
20260901223158 86 76 3.0 6.0 0.00 1.06 0.24 81 1015.1
20260901222653 86 19 3.0 7.0 0.00 1.06 0.24 81 1015.0
20260901222129 86 360 3.0 6.0 0.00 1.06 0.24 82 1015.1
20260901221726 86 104 4.0 6.0 0.00 1.06 0.24 81 1015.0
20260901221221 86 25 4.0 6.0 0.00 1.06 0.24 81 1015.0
20260901220717 86 120 1.0 4.0 0.00 1.06 0.24 82 1015.2
20260901220213 86 120 2.0 6.0 0.00 1.06 0.24 81 1015.2
20260901220131 86 120 2.0 6.0 0.00 1.06 0.24 81 1015.2
20260901215640 86 120 3.0 6.0 0.00 1.06 0.24 81 1015.3
20260901215138 86 121 2.0 8.0 0.00 1.06 0.24 82 1015.2
20260901214736 86 120 4.0 8.0 0.00 1.06 0.24 82 1015.3
20260901214653 86 120 4.0 8.0 0.00 1.06 0.24 82 1015.3
20260901214129 86 83 1.0 4.0 0.00 1.06 0.24 83 1015.3
20260901213645 86 83 2.0 4.0 0.00 1.06 0.24 84 1015.2
20260901213202 85 83 2.0 7.0 0.00 1.06 0.24 85 1015.1
20260901212638 85 83 3.0 6.0 0.00 1.06 0.24 85 1015.0
20260901212135 85 125 2.0 9.0 0.00 1.06 0.24 86 1014.8
20260901211654 85 9 5.0 9.0 0.00 1.06 0.24 86 1014.6
20260901211129 84 39 2.0 9.0 0.00 1.06 0.24 87 1014.6
20260901210648 84 69 3.0 9.0 0.00 1.06 0.24 88 1014.6
20260901210246 84 98 4.0 9.0 0.00 1.06 0.24 89 1014.5
20260901205653 83 47 3.0 5.0 0.00 1.06 0.24 90 1014.5
20260901205210 83 36 2.0 5.0 0.01 1.06 0.24 91 1014.7
20260901204726 83 57 2.0 6.0 0.01 1.06 0.24 91 1014.7
20260901204154 83 46 3.0 6.0 0.01 1.06 0.24 91 1014.6
20260901203730 83 17 3.0 4.0 0.01 1.06 0.24 92 1014.5
20260901203144 83 90 1.0 6.0 0.01 1.06 0.24 93 1014.6
20260901202721 83 90 2.0 6.0 0.01 1.06 0.24 92 1014.7
20260901202156 82 86 1.0 4.0 0.01 1.06 0.24 93 1014.7
20260901201634 82 86 3.0 6.0 0.01 1.06 0.24 93 1014.7
20260901201132 82 78 3.0 6.0 0.01 1.06 0.24 93 1014.6
20260901200651 82 36 1.0 5.0 0.01 1.06 0.24 93 1014.7
20260901200227 81 17 2.0 5.0 0.01 1.06 0.24 93 1014.8
20260901200145 81 17 2.0 5.0 0.01 1.06 0.24 93 1014.8
20260901195634 81 16 2.0 4.0 0.01 1.06 0.24 94 1015.0
20260901195152 81 58 0.0 0.0 0.00 1.05 0.23 94 1015.0
20260901194708 80 58 0.0 0.0 0.00 1.05 0.23 94 1014.9
20260901194204 80 58 0.0 0.0 0.00 1.05 0.23 94 1015.0
20260901193700 80 58 0.0 3.0 0.00 1.05 0.23 94 1015.0
20260901193137 80 58 1.0 3.0 0.02 1.05 0.23 94 1015.2
20260901192653 80 53 0.0 0.0 0.06 1.05 0.23 94 1015.2
20260901192151 80 53 0.0 0.0 0.16 1.05 0.23 95 1015.6
20260901191749 80 53 0.0 0.0 0.22 1.05 0.23 95 1015.7
20260901191706 80 53 0.0 0.0 0.22 1.05 0.23 95 1015.7
20260901191203 80 53 0.0 0.0 0.22 1.05 0.23 94 1015.9
20260901190640 80 53 0.0 2.0 0.22 1.05 0.23 94 1015.9
20260901190159 80 53 1.0 4.0 0.22 1.05 0.23 94 1015.8
20260901185628 80 53 0.0 4.0 0.22 1.05 0.23 94 1015.9
20260901185146 80 22 2.0 5.0 0.22 1.05 0.23 94 1016.1
20260901184643 80 32 2.0 8.0 0.22 1.05 0.23 93 1016.2
20260901184221 80 21 4.0 9.0 0.22 1.05 0.23 93 1016.4
20260901183636 80 21 6.0 9.0 0.21 1.04 0.22 92 1016.3
20260901183133 80 333 4.0 9.0 0.20 1.03 0.21 91 1016.3
20260901182711 81 338 5.0 11.0 0.15 0.98 0.16 90 1016.4
20260901182148 82 295 5.0 13.0 0.06 0.89 0.07 87 1016.5
20260901181646 83 318 4.0 13.0 0.00 0.83 0.01 86 1016.4
20260901181224 83 344 6.0 12.0 0.00 0.83 0.01 85 1016.2
20260901181142 83 344 6.0 12.0 0.00 0.83 0.01 85 1016.2
20260901180639 84 339 5.0 12.0 0.00 0.83 0.01 82 1016.3
20260901180159 86 338 3.0 11.0 0.00 0.83 0.01 80 1016.5
20260901175704 87 345 6.0 10.0 0.00 0.83 0.01 79 1016.6
20260901175200 88 82 4.0 10.0 0.00 0.83 0.01 80 1016.6
20260901174636 88 109 4.0 10.0 0.00 0.83 0.01 81 1016.6
20260901174234 88 114 5.0 11.0 0.00 0.83 0.01 80 1016.4
20260901174131 88 114 5.0 11.0 0.00 0.83 0.01 80 1016.4
20260901173628 88 123 5.0 11.0 0.00 0.83 0.01 80 1016.4
20260901173148 88 5 3.0 9.0 0.00 0.83 0.01 80 1016.3
20260901172705 88 93 3.0 7.0 0.00 0.83 0.01 80 1016.4
20260901172203 88 93 2.0 8.0 0.00 0.83 0.01 80 1016.3
20260901171719 88 129 3.0 9.0 0.00 0.83 0.01 79 1016.4
20260901171137 88 104 5.0 9.0 0.00 0.83 0.01 81 1016.5
20260901170634 87 85 3.0 7.0 0.00 0.83 0.01 81 1016.5
20260901170151 87 85 2.0 7.0 0.00 0.83 0.01 82 1016.6
20260901165658 87 85 2.0 7.0 0.00 0.83 0.01 82 1016.7
20260901165134 87 85 3.0 7.0 0.00 0.83 0.01 82 1016.8
20260901164632 87 84 3.0 7.0 0.00 0.83 0.01 82 1016.8
20260901164129 87 84 3.0 7.0 0.00 0.83 0.01 82 1016.8
20260901163727 87 84 3.0 8.0 0.00 0.83 0.01 82 1016.8
20260901163223 86 84 4.0 8.0 0.00 0.83 0.01 82 1016.9
20260901163141 86 84 4.0 8.0 0.00 0.83 0.01 82 1016.9
20260901162659 86 84 3.0 6.0 0.00 0.83 0.01 83 1016.9
20260901162134 86 84 3.0 7.0 0.00 0.83 0.01 83 1016.8
20260901161652 86 84 2.0 7.0 0.00 0.83 0.01 83 1016.8
20260901161228 86 84 2.0 6.0 0.00 0.83 0.01 83 1016.8
20260901160703 86 84 3.0 6.0 0.00 0.83 0.01 82 1016.8
20260901160159 86 84 3.0 6.0 0.00 0.83 0.01 83 1016.8
20260901155706 86 84 3.0 6.0 0.00 0.83 0.01 83 1016.8
20260901155223 86 84 2.0 4.0 0.00 0.83 0.01 83 1016.7
20260901154639 86 84 0.0 4.0 0.00 0.83 0.01 84 1016.8
20260901154136 86 84 1.0 4.0 0.00 0.83 0.01 84 1016.7
20260901153655 85 84 1.0 4.0 0.01 0.83 0.01 83 1016.6
20260901153231 85 84 1.0 4.0 0.01 0.83 0.01 83 1016.7
20260901152646 85 84 0.0 4.0 0.01 0.83 0.01 84 1016.8
20260901152146 85 84 2.0 4.0 0.01 0.83 0.01 84 1016.9
20260901151644 85 84 2.0 4.0 0.01 0.83 0.01 85 1016.9
20260901151242 85 84 3.0 4.0 0.01 0.83 0.01 85 1016.8
20260901150636 85 84 0.0 4.0 0.01 0.83 0.01 85 1016.9
20260901150155 85 84 2.0 6.0 0.01 0.84 0.01 85 1016.8
20260901145639 85 84 2.0 7.0 0.01 0.84 0.01 84 1016.8
20260901145157 86 84 3.0 6.0 0.01 0.84 0.01 83 1016.8
20260901144633 86 84 1.0 6.0 0.01 0.84 0.01 83 1016.7
20260901144151 86 84 2.0 5.0 0.01 0.84 0.01 82 1016.7
20260901143646 87 44 1.0 3.0 0.00 0.83 0.00 80 1016.7
20260901143204 87 44 2.0 3.0 0.00 0.83 0.00 81 1016.7
20260901142741 87 44 1.0 3.0 0.00 0.83 0.00 81 1016.6
20260901142136 87 43 0.0 4.0 0.00 0.83 0.00 82 1016.4
20260901141634 87 23 0.0 4.0 0.00 0.83 0.00 82 1016.4
20260901141212 86 332 0.0 3.0 0.00 0.83 0.00 83 1016.4
20260901140708 86 332 0.0 3.0 0.00 0.83 0.00 84 1016.3
20260901140143 86 332 1.0 4.0 0.00 0.83 0.00 83 1016.3
20260901135650 86 336 2.0 4.0 0.00 0.83 0.00 83 1016.2
20260901135206 86 336 1.0 3.0 0.00 0.83 0.00 84 1016.4
20260901134703 85 336 0.0 3.0 0.00 0.83 0.00 85 1016.3
20260901134219 85 336 0.0 5.0 0.00 0.83 0.00 86 1016.2
20260901133636 85 336 2.0 5.0 0.00 0.83 0.00 86 1016.2
20260901133135 84 336 3.0 5.0 0.00 0.83 0.00 88 1016.2
20260901132731 84 331 1.0 5.0 0.00 0.83 0.00 90 1016.2
20260901132220 84 100 0.0 0.0 0.00 0.83 0.00 91 1016.2
20260901132138 84 100 0.0 0.0 0.00 0.83 0.00 91 1016.2
20260901131639 83 100 0.0 0.0 0.00 0.83 0.00 92 1016.3
20260901131213 83 100 0.0 0.0 0.00 0.83 0.00 93 1016.3
20260901130708 83 100 0.0 0.0 0.00 0.83 0.00 95 1016.2
20260901130204 82 100 0.0 0.0 0.00 0.83 0.00 95 1016.2
20260901125731 82 100 0.0 0.0 0.00 0.83 0.00 96 1016.3
20260901125207 81 100 0.0 0.0 0.00 0.83 0.00 96 1016.1
20260901124642 81 100 0.0 0.0 0.00 0.83 0.00 96 1016.1
20260901124139 81 100 0.0 0.0 0.00 0.83 0.00 97 1016.2
20260901123737 80 100 0.0 0.0 0.00 0.83 0.00 97 1016.1
20260901123211 80 100 0.0 0.0 0.00 0.83 0.00 98 1016.2
20260901122706 80 100 0.0 0.0 0.00 0.83 0.00 97 1016.2
20260901122143 79 100 0.0 0.0 0.00 0.83 0.00 98 1016.1
20260901121641 79 100 0.0 0.0 0.00 0.83 0.00 98 1016.1
20260901121159 79 100 0.0 0.0 0.00 0.83 0.00 98 1016.0
20260901120636 79 103 0.0 0.0 0.00 0.83 0.00 98 1015.9
20260901120135 78 103 0.0 0.0 0.00 0.83 0.00 98 1016.0
20260901115703 78 103 0.0 0.0 0.00 0.83 0.00 98 1016.0
20260901115159 78 103 0.0 0.0 0.00 0.83 0.00 98 1015.9
20260901114636 78 103 0.0 0.0 0.00 0.83 0.00 98 1015.8
20260901114233 78 103 0.0 0.0 0.00 0.83 0.00 98 1015.8
20260901113709 78 103 0.0 0.0 0.00 0.83 0.00 98 1015.7
20260901113225 78 103 0.0 0.0 0.00 0.83 0.00 98 1015.8
20260901112701 78 103 0.0 0.0 0.00 0.83 0.00 98 1015.7
20260901112158 78 103 0.0 0.0 0.00 0.83 0.00 97 1015.5
20260901111735 78 103 0.0 0.0 0.00 0.83 0.00 97 1015.4
20260901111632 78 103 0.0 0.0 0.00 0.83 0.00 97 1015.4
20260901111150 78 103 0.0 0.0 0.00 0.83 0.00 97 1015.4
20260901110701 78 103 0.0 0.0 0.00 0.83 0.00 97 1015.3
20260901110157 78 103 0.0 0.0 0.00 0.83 0.00 97 1015.3
20260901105742 78 103 0.0 0.0 0.00 0.83 0.00 97 1015.2
20260901105135 78 103 0.0 0.0 0.00 0.83 0.00 97 1015.2
20260901104633 78 103 0.0 0.0 0.00 0.83 0.00 97 1015.3
20260901104210 78 103 0.0 0.0 0.00 0.83 0.00 97 1015.2
20260901103646 78 103 0.0 0.0 0.00 0.83 0.00 97 1015.2
20260901103205 78 103 0.0 0.0 0.00 0.83 0.00 97 1015.2
20260901102701 78 103 0.0 0.0 0.00 0.83 0.00 97 1015.2
20260901102137 78 103 0.0 0.0 0.00 0.83 0.00 97 1015.0
20260901101655 78 103 0.0 0.0 0.00 0.83 0.00 97 1015.0
20260901101132 78 103 0.0 0.0 0.00 0.83 0.00 97 1014.9
20260901100729 78 103 0.0 0.0 0.00 0.83 0.00 97 1015.0
20260901100142 78 103 0.0 0.0 0.00 0.83 0.00 97 1015.0
20260901095729 78 103 0.0 0.0 0.00 0.83 0.00 97 1015.0